Location: Waco, TX
(31.5480°N, 97.1670°W)
Time: 21:14:27
(UTC-06:00)

ISS - All Passes

Search period start: 13 December 2018 00:00
Search period end: 23 December 2018 00:00
Orbit: 401 x 408 km, 51.6° (Epoch: 14 December)

Date Brightness Start Highest point End Pass type
(mag) Time Alt. Az. Time Alt. Az. Time Alt. Az.
13 Dec - 10:45:19 10° WSW 10:48:32 54° NW 10:51:45 10° NE daylight
13 Dec - 17:17:59 10° N 17:19:58 15° NE 17:21:57 10° ENE daylight
13 Dec - 18:53:30 10° WNW 18:56:36 42° SW 18:59:41 10° SSE visible
14 Dec - 09:53:09 10° SW 09:56:23 62° SE 09:59:37 10° NE daylight
14 Dec - 11:31:44 10° WNW 11:33:08 12° NNW 11:34:32 10° N daylight
14 Dec - 18:01:14 10° NW 18:04:29 79° NE 18:07:43 10° SE visible
15 Dec - 09:01:31 10° S 09:04:18 26° SE 09:07:06 10° ENE daylight
15 Dec - 10:38:11 10° W 10:40:45 21° NW 10:43:19 10° NNE daylight
15 Dec - 17:09:15 10° NNW 17:12:15 34° NE 17:15:16 10° ESE daylight
15 Dec - 18:46:39 10° W 18:48:29 14° SW 18:50:18 10° SSW visible
16 Dec - 08:10:53 10° SSE 08:12:17 12° SE 08:13:41 10° E daylight
16 Dec - 09:45:20 10° WSW 09:48:26 40° NW 09:51:34 10° NNE daylight
16 Dec - 16:17:34 10° N 16:19:56 18° NE 16:22:18 10° E daylight
16 Dec - 17:53:31 10° WNW 17:56:27 31° SW 17:59:21 10° SSE visible
17 Dec - 08:52:58 10° SW 08:56:14 86° SE 08:59:31 10° NE daylight
17 Dec - 10:32:53 10° NW 10:33:06 10° NNW 10:33:19 10° NNW daylight
17 Dec - 15:26:38 10° NNE 15:27:30 11° NNE 15:28:21 10° NE daylight
17 Dec - 17:01:04 10° NW 17:04:19 76° SW 17:07:33 10° SE daylight
18 Dec - 08:01:03 10° SSW 08:04:05 35° SE 08:07:07 10° ENE daylight
18 Dec - 09:38:23 10° W 09:40:38 17° NW 09:42:54 10° N daylight
18 Dec - 16:08:57 10° NNW 16:12:06 45° NE 16:15:14 10° ESE daylight
18 Dec - 17:47:26 10° WSW 17:48:13 11° SW 17:49:00 10° SW daylight
19 Dec - 07:09:53 10° SSE 07:12:00 16° SE 07:14:07 10° E daylight
19 Dec - 08:45:18 10° WSW 08:48:15 31° NW 08:51:14 10° NNE daylight
19 Dec - 15:17:07 10° NNW 15:19:47 23° NE 15:22:25 10° E daylight
19 Dec - 16:53:31 10° WNW 16:56:10 23° SW 16:58:49 10° S daylight
20 Dec - 07:52:43 10° SW 07:55:58 69° NW 07:59:14 10° NE daylight
20 Dec - 14:25:43 10° N 14:27:20 13° NNE 14:28:56 10° ENE daylight
20 Dec - 16:00:51 10° NW 16:04:02 54° SW 16:07:12 10° SSE daylight
21 Dec - 07:00:35 10° SSW 07:03:45 48° SE 07:06:56 10° ENE daylight
21 Dec - 08:38:34 10° WNW 08:40:25 14° NNW 08:42:16 10° N daylight
21 Dec - 15:08:35 10° NW 15:11:49 61° NE 15:15:01 10° SE daylight
22 Dec - 06:09:03 10° S 06:11:37 21° SE 06:14:11 10° ENE visible
22 Dec - 07:45:12 10° W 07:47:58 25° NW 07:50:45 10° NNE daylight
22 Dec - 14:16:36 10° NNW 14:19:29 28° NE 14:22:21 10° ESE daylight
22 Dec - 15:53:30 10° W 15:55:46 18° SW 15:58:03 10° S daylight
